Weather History for Cairns, QU

Change the Weather History Date:

Tuesday, March 20, 2012

  Actual Average Record
Temperature  
Mean Temperature 80 °F -  
Max Temperature 83 °F 85 °F 89 °F (2009)
Min Temperature 76 °F 72 °F 71 °F (2003)
Cooling Degree Days 14    
Growing Degree Days 30 (Base 50)    
Moisture  
Dew Point 77 °F    
Average Humidity 89    
Maximum Humidity 100    
Minimum Humidity 79    
Precipitation  
Precipitation 0.47 in 0.39 in - ()
Sea Level Pressure  
Sea Level Pressure 29.56 in    
Wind  
Wind Speed 9 mph ()    
Max Wind Speed 20 mph    
Max Gust Speed -    
Visibility 6.0 miles    
Events Rain , Thunderstorm    
Averages and records for this station are not official NWS values.
T = Trace of Precipitation, MM = Missing Value Source: Averaged Metar Reports

Daily Weather History Graph

Daily Weather History Graph

Search for Another Location

Airport:

Trip Planner

Search our weather history database for the weather conditions in past years. The results will help you decide how hot, cold, wet, or windy it might be!

Date:

Astronomy

Mar. 20, 2012 Rise Set
Actual Time 6:20 AM EST 6:27 PM EST
Civil Twilight 5:59 AM EST 6:49 PM EST
Nautical Twilight 5:34 AM EST 7:14 PM EST
Astronomical Twilight 5:08 AM EST 7:39 PM EST
Moon 4:06 AM EST (3/20) 4:44 PM EST (3/20)
Length of Visible Light 12h 50m
Length of Day
12h 06m
Waning Crescent, 6% of the Moon is Illuminated
Mar 20
Waning Crescent
Mar 23
New
Mar 31
First Quarter
Apr 7
Full
Apr 13
Last Quarter

Hourly Weather History & Observations

Time (EST) Temp. Heat Index Dew Point Humidity Pressure Visibility Wind Dir Wind Speed Gust Speed Precip Events Conditions
12:00 AM 79 °F - 77 °F 92% 29.61 in 7 mi NW 8.1 mph - - Thunderstorm Light Thunderstorm
12:00 AM 78.8 °F - 77.0 °F 94% 29.59 in 6.2 mi NW 8.1 mph - N/A   Mostly Cloudy
12:18 AM 80.6 °F 87.1 °F 77.0 °F 89% 29.59 in 6.2 mi North 18.4 mph - N/A Rain Light Rain Showers
12:30 AM 80.6 °F 87.1 °F 77.0 °F 89% 29.59 in 6.2 mi North 12.7 mph - N/A   Overcast
1:00 AM 80 °F - 77 °F 87% 29.60 in - North 15.0 mph - -  
1:00 AM 80.6 °F 87.1 °F 77.0 °F 89% 29.59 in 6.2 mi North 15.0 mph - N/A   Mostly Cloudy
1:15 AM 78.8 °F - 77.0 °F 94% 29.56 in 3.7 mi NNW 11.5 mph - N/A Rain Light Rain Showers
1:30 AM 78.8 °F - 77.0 °F 94% 29.56 in 3.7 mi NW 10.4 mph - N/A Rain Light Rain Showers
2:00 AM 77.0 °F - 77.0 °F 100% 29.56 in 6.2 mi NW 8.1 mph - N/A   Overcast
2:30 AM 77.0 °F - 77.0 °F 100% 29.53 in 6.2 mi NW 5.8 mph - N/A   Mostly Cloudy
3:00 AM 78.8 °F - 75.2 °F 89% 29.53 in 6.2 mi NNW 5.8 mph - N/A   Mostly Cloudy
3:30 AM 78.8 °F - 75.2 °F 89% 29.53 in 6.2 mi NNW 8.1 mph - N/A   Mostly Cloudy
4:00 AM 79 °F - 74 °F 81% 29.56 in - WNW 5.8 mph - -  
4:00 AM 78.8 °F - 73.4 °F 83% 29.53 in 6.2 mi WNW 5.8 mph - N/A   Mostly Cloudy
4:30 AM 78.8 °F - 75.2 °F 89% 29.56 in 6.2 mi West 5.8 mph - N/A   Mostly Cloudy
5:00 AM 78.8 °F - 75.2 °F 89% 29.56 in 6.2 mi WNW 5.8 mph - N/A   Mostly Cloudy
5:30 AM 78.8 °F - 75.2 °F 89% 29.56 in 6.2 mi NNW 5.8 mph - N/A   Mostly Cloudy
6:00 AM 79 °F - 75 °F 85% 29.57 in 16 mi WNW 5.8 mph - -   Partly Cloudy
6:00 AM 78.8 °F - 75.2 °F 89% 29.56 in 6.2 mi WNW 5.8 mph - N/A   Overcast
6:30 AM 78.8 °F - 75.2 °F 89% 29.56 in 6.2 mi WNW 5.8 mph - N/A   Overcast
7:00 AM 80 °F - 75 °F 80% 29.59 in - WNW 5.8 mph - -  
7:00 AM 80.6 °F 86.2 °F 75.2 °F 84% 29.56 in 6.2 mi WNW 5.8 mph - N/A   Overcast
7:30 AM 80.6 °F 86.2 °F 75.2 °F 84% 29.56 in 6.2 mi West 4.6 mph - N/A   Overcast
8:00 AM 80.6 °F 87.1 °F 77.0 °F 89% 29.59 in 6.2 mi NW 3.5 mph - N/A   Overcast
8:30 AM 80.6 °F 87.1 °F 77.0 °F 89% 29.59 in 6.2 mi WNW 5.8 mph - N/A   Mostly Cloudy
9:00 AM 81 °F - 76 °F 82% 29.61 in 6 mi NW 6.9 mph - -   Overcast
9:00 AM 80.6 °F 87.1 °F 77.0 °F 89% 29.59 in 6.2 mi NW 6.9 mph - N/A   Overcast
9:18 AM 80.6 °F 87.1 °F 77.0 °F 89% 29.59 in 3.1 mi NNW 5.8 mph - N/A Rain Light Rain Showers
9:30 AM 78.8 °F - 77.0 °F 94% 29.59 in 3.1 mi NNW 9.2 mph - N/A Rain Light Rain
10:00 AM 80 °F - 78 °F 91% 29.61 in - NNW 9.2 mph - -  
10:00 AM 78.8 °F - 77.0 °F 94% 29.59 in 3.7 mi NNW 9.2 mph - N/A Rain Light Rain
10:30 AM 80.6 °F 87.1 °F 77.0 °F 89% 29.59 in 4.3 mi NNW 10.4 mph - N/A   Mostly Cloudy
11:00 AM 80.6 °F 87.1 °F 77.0 °F 89% 29.59 in 3.1 mi NW 9.2 mph - N/A Rain Light Rain
11:30 AM 82.4 °F 90.9 °F 77.0 °F 84% 29.59 in 5.0 mi NW 8.1 mph - N/A   Mostly Cloudy
12:00 PM 81 °F - 77 °F 85% 29.59 in 4 mi NNW 8.1 mph - - Rain Light Rain
12:00 PM 80.6 °F 87.1 °F 77.0 °F 89% 29.59 in 4.3 mi NNW 8.1 mph - N/A Rain Light Rain
12:08 PM 80.6 °F 87.1 °F 77.0 °F 89% 29.56 in 3.1 mi NW 10.4 mph - N/A Rain Light Rain
12:30 PM 82.4 °F 90.9 °F 77.0 °F 84% 29.56 in 5.0 mi NNW 10.4 mph - N/A   Overcast
1:00 PM 83 °F - 78 °F 82% 29.55 in - North 15.0 mph - -  
1:00 PM 82.4 °F 92.4 °F 78.8 °F 89% 29.53 in 6.2 mi North 15.0 mph - N/A   Overcast
1:30 PM 82.4 °F 92.4 °F 78.8 °F 89% 29.50 in 6.2 mi North 19.6 mph - N/A   Overcast
1:45 PM 82.4 °F 92.4 °F 78.8 °F 89% 29.50 in 3.1 mi North 13.8 mph - N/A Rain Light Rain Showers
2:00 PM 80.6 °F 88.1 °F 78.8 °F 94% 29.50 in 3.1 mi North 12.7 mph - N/A Rain Light Rain Showers
2:23 PM 80.6 °F 88.1 °F 78.8 °F 94% 29.50 in 5.6 mi NNW 11.5 mph - N/A Rain Light Rain Showers
2:30 PM 80.6 °F 88.1 °F 78.8 °F 94% 29.50 in 6.2 mi NW 11.5 mph - N/A   Overcast
3:00 PM 83 °F - 79 °F 84% 29.49 in 12 mi NNW 13.8 mph - - Rain Light Rain Showers
3:00 PM 82.4 °F 92.4 °F 78.8 °F 89% 29.47 in 6.2 mi NNW 13.8 mph - N/A   Mostly Cloudy
3:28 PM 82.4 °F 92.4 °F 78.8 °F 89% 29.47 in 6.2 mi North 17.3 mph - N/A   Mostly Cloudy
4:00 PM 83 °F - 78 °F 80% 29.49 in - North 15.0 mph - -  
4:00 PM 82.4 °F 92.4 °F 78.8 °F 89% 29.47 in 6.2 mi North 15.0 mph - N/A   Mostly Cloudy
4:30 PM 82.4 °F 92.4 °F 78.8 °F 89% 29.50 in 6.2 mi North 15.0 mph - N/A   Mostly Cloudy
5:00 PM 82.4 °F 92.4 °F 78.8 °F 89% 29.50 in 6.2 mi NW 12.7 mph - N/A Rain Light Rain Showers
5:30 PM 80.6 °F 88.1 °F 78.8 °F 94% 29.50 in 6.2 mi NNW 16.1 mph - N/A   Mostly Cloudy
5:50 PM 80.6 °F 88.1 °F 78.8 °F 94% 29.50 in 2.5 mi NNW 15.0 mph - N/A Rain Light Rain Showers
6:00 PM 81 °F - 79 °F 92% 29.52 in 9 mi NNW 13.8 mph - - Rain Light Rain Showers
6:00 PM 80.6 °F 88.1 °F 78.8 °F 94% 29.50 in 6.2 mi NNW 13.8 mph - N/A Rain Light Rain Showers
6:30 PM 80.6 °F 88.1 °F 78.8 °F 94% 29.53 in 6.2 mi NNW 15.0 mph - N/A   Mostly Cloudy
7:00 PM 80 °F - 78 °F 93% 29.57 in - NNW 15.0 mph - -  
7:00 PM 80.6 °F 88.1 °F 78.8 °F 94% 29.56 in 6.2 mi NNW 15.0 mph - N/A   Mostly Cloudy
7:30 PM 80.6 °F 88.1 °F 78.8 °F 94% 29.56 in 6.2 mi NNW 12.7 mph - N/A   Mostly Cloudy
8:00 PM 80.6 °F 88.1 °F 78.8 °F 94% 29.56 in 6.2 mi NNW 11.5 mph - N/A   Mostly Cloudy
8:30 PM 80.6 °F 87.1 °F 77.0 °F 89% 29.56 in 6.2 mi WNW 8.1 mph - N/A   Scattered Clouds
9:00 PM 81 °F - 76 °F 79% 29.59 in 16 mi NW 10.4 mph - -   Partly Cloudy
9:00 PM 80.6 °F 86.2 °F 75.2 °F 84% 29.56 in 6.2 mi NW 10.4 mph - N/A   Scattered Clouds
9:30 PM 80.6 °F 86.2 °F 75.2 °F 84% 29.59 in 6.2 mi NNW 9.2 mph - N/A   Scattered Clouds
10:00 PM 81 °F - 76 °F 80% 29.60 in - NW 8.1 mph - -  
10:00 PM 80.6 °F 86.2 °F 75.2 °F 84% 29.59 in 6.2 mi NW 8.1 mph - N/A   Scattered Clouds
10:30 PM 80.6 °F 86.2 °F 75.2 °F 84% 29.59 in 6.2 mi WNW 5.8 mph - N/A   Mostly Cloudy
11:00 PM 80.6 °F 86.2 °F 75.2 °F 84% 29.59 in 6.2 mi NW 9.2 mph - N/A   Mostly Cloudy
11:30 PM 80.6 °F 86.2 °F 75.2 °F 84% 29.59 in 6.2 mi NW 8.1 mph - N/A   Mostly Cloudy